Voltar ao catálogo

STARLINK-4637

AtivoComunicaçõesVLEO
NORAD 53742·PAYLOAD·🇺🇸 United States

Lançado Sep 5, 2022 de Cape Canaveral Space Force Station

Loading…

Próximas Passagens (próximas 24 horas)

TLE

AtualizadoSource: CelesTrak SupGP

Época: Sep 15, 2026, 02:26 UTC

1 53742C 22107AU  26258.10187500  .00040316  00000+0  11912-2 0  2585
2 53742  53.1576 118.8036 0001156  84.9248 262.2694 15.34368704    18

Acompanhe STARLINK-4637 em tempo real com AllMySat

Download on the App Store